This is the latest recevied weather packets stored in our database for station/object K7YVO. If no packets are shown the sender has not sent any weather packets the latest 10 day(s).
| Time | Temp. | Humidity | Pressure | Rain* | Wind** | Luminosity | Snow |
|---|---|---|---|---|---|---|---|
| 1777633052 | 13.89° C | 62% | 1017.7 hPa | 0 mm | - | 0 W/m² | - |
| 1777632748 | 13.89° C | 58% | 1017.7 hPa | 0 mm | - | 0 W/m² | - |
| 1777632443 | 14.44° C | 55% | 1017.6 hPa | 0 mm | - | 0 W/m² | - |
| 1777631839 | 14.44° C | 51% | 1017.6 hPa | 0 mm | - | 0 W/m² | - |
| 1777631537 | 14.44° C | 48% | 1017.4 hPa | 0 mm | - | 0 W/m² | - |
| 1777631234 | 13.89° C | 51% | 1017.5 hPa | 0 mm | - | 0 W/m² | - |
| 1777630931 | 14.44° C | 52% | 1017.5 hPa | 0 mm | - | 0 W/m² | - |
| 1777630626 | 15° C | 48% | 1017.5 hPa | 0 mm | - | 0 W/m² | - |
| 1777630324 | 15° C | 47% | 1017.4 hPa | 0 mm | - | 0 W/m² | - |
| 1777630021 | 15° C | 47% | 1017.5 hPa | 0 mm | - | 0 W/m² | - |
| 1777629718 | 15.56° C | 47% | 1017.3 hPa | 0 mm | - | 0 W/m² | - |
| 1777629415 | 15.56° C | 47% | 1017.2 hPa | 0 mm | - | 0 W/m² | - |
| 1777629111 | 15.56° C | 46% | 1017.4 hPa | 0 mm | - | 0 W/m² | - |
| 1777628807 | 15.56° C | 47% | 1017.4 hPa | 0 mm | - | 0 W/m² | - |
| 1777628200 | 15.56° C | 47% | 1017.4 hPa | 0 mm | - | 0 W/m² | - |
| 1777627895 | 15.56° C | 46% | 1017.6 hPa | 0 mm | - | 0 W/m² | - |
| 1777627589 | 15.56° C | 46% | 1017.5 hPa | 0 mm | - | 0 W/m² | - |
| 1777627283 | 16.11° C | 46% | 1017.4 hPa | 0 mm | - | 0 W/m² | - |
| 1777626982 | 16.11° C | 46% | 1017.5 hPa | 0 mm | - | 0 W/m² | - |
| 1777626677 | 16.11° C | 46% | 1017.6 hPa | 0 mm | - | 0 W/m² | - |
| 1777626374 | 16.11° C | 46% | 1017.6 hPa | 0 mm | - | 0 W/m² | - |
| 1777626072 | 16.11° C | 46% | 1017.5 hPa | 0 mm | - | 0 W/m² | - |
| 1777625767 | 16.11° C | 45% | 1017.5 hPa | 0 mm | - | 0 W/m² | - |
| 1777625463 | 16.11° C | 45% | 1017.6 hPa | 0 mm | - | 0 W/m² | - |
| 1777625158 | 16.11° C | 46% | 1017.5 hPa | 0 mm | - | 0 W/m² | - |
* Rain latest hour (hover to see other rain measurements)
** Current wind speed in m/s (hover to see current wind gust speed)